This is the latest recevied weather packets stored in our database for station/object KE4EST. If no packets are shown the sender has not sent any weather packets the latest 10 day(s).
| Time | Temp. | Humidity | Pressure | Rain* | Wind** | Luminosity | Snow |
|---|---|---|---|---|---|---|---|
| 1778010333 | 25.56° C | 38% | 1013.9 hPa | 0 mm | - | 577 W/m² | - |
| 1778010028 | 26.67° C | 37% | 1013.9 hPa | 0 mm | - | 374 W/m² | - |
| 1778009726 | 26.11° C | 37% | 1013.9 hPa | 0 mm | - | 438 W/m² | - |
| 1778009423 | 26.11° C | 36% | 1014.2 hPa | 0 mm | - | 531 W/m² | - |
| 1778009122 | 26.11° C | 36% | 1014.2 hPa | 0 mm | - | 597 W/m² | - |
| 1778008819 | 26.11° C | 33% | 1014.1 hPa | 0 mm | - | 584 W/m² | - |
| 1778008517 | 25.56° C | 35% | 1014.4 hPa | 0 mm | - | 623 W/m² | - |
| 1778008215 | 25.56° C | 36% | 1014.3 hPa | 0 mm | - | 509 W/m² | - |
| 1778007909 | 25.56° C | 33% | 1014.4 hPa | 0 mm | - | 623 W/m² | - |
| 1778007605 | 25.56° C | 35% | 1014.6 hPa | 0 mm | - | 470 W/m² | - |
| 1778007302 | 25° C | 34% | 1014.8 hPa | 0 mm | - | 677 W/m² | - |
| 1778006999 | 25° C | 36% | 1014.9 hPa | 0 mm | - | 481 W/m² | - |
| 1778006696 | 24.44° C | 36% | 1014.8 hPa | 0 mm | - | 277 W/m² | - |
| 1778006392 | 25° C | 33% | 1015.1 hPa | 0 mm | - | 614 W/m² | - |
| 1778006089 | 25.56° C | 35% | 1014.9 hPa | 0 mm | - | 519 W/m² | - |
| 1778005786 | 25° C | 35% | 1015 hPa | 0 mm | - | 651 W/m² | - |
| 1778005483 | 25° C | 33% | 1015 hPa | 0 mm | - | 609 W/m² | - |
| 1778005179 | 25° C | 35% | 1015.3 hPa | 0 mm | - | 638 W/m² | - |
| 1778004877 | 25° C | 35% | 1015.3 hPa | 0 mm | - | 493 W/m² | - |
| 1778004573 | 24.44° C | 37% | 1015.4 hPa | 0 mm | - | 594 W/m² | - |
| 1778004269 | 24.44° C | 33% | 1015.4 hPa | 0 mm | - | 552 W/m² | - |
| 1778003966 | 24.44° C | 35% | 1015.4 hPa | 0 mm | - | 581 W/m² | - |
| 1778003662 | 23.33° C | 35% | 1015.5 hPa | 0 mm | - | 556 W/m² | - |
| 1778003359 | 23.33° C | 35% | 1015.5 hPa | 0 mm | - | 640 W/m² | - |
| 1778003057 | 23.89° C | 36% | 1015.7 hPa | 0 mm | - | 323 W/m² | - |
* Rain latest hour (hover to see other rain measurements)
** Current wind speed in m/s (hover to see current wind gust speed)